Farmington, NM

2:06 AM MST on December 15, 2017 (GMT -0700)
Four Corners Regional

Weather History for KFMN - December, 2012

Change the Weather History Date:

Saturday, December 15, 2012

  Actual Average Record
Temperature  
Mean Temperature 34 °F -  
Max Temperature 39 °F 41 °F 54 °F (1988)
Min Temperature 28 °F 17 °F 1 °F (1987)
Degree Days  
Heating Degree Days 32    
Moisture  
Dew Point 30 °F    
Average Humidity 93    
Maximum Humidity 100    
Minimum Humidity 59    
Precipitation  
Precipitation 0.28 in - - ()
Sea Level Pressure  
Sea Level Pressure 29.88 in    
Wind  
Wind Speed 6 mph (NE)    
Max Wind Speed 15 mph    
Max Gust Speed -    
Visibility 5 miles    
Events Fog , Rain , Snow    
Averages and records for this station are not official NWS values.
T = Trace of Precipitation, MM = Missing Value Source: NWS Daily Summary

Daily Weather History Graph

Daily Weather History Graph

Search for Another Location

Airport or City:

Trip Planner

Search our weather history database for the weather conditions in past years. The results will help you decide how hot, cold, wet, or windy it might be!

Date:

Astronomy

Dec. 15, 2012 Rise Set
Actual Time 7:18 AM MST 4:58 PM MST
Civil Twilight 6:49 AM MST 5:27 PM MST
Nautical Twilight 6:17 AM MST 5:59 PM MST
Astronomical Twilight 5:45 AM MST 6:31 PM MST
Moon 9:16 AM MST 8:02 PM MST
Length of Visible Light 10h 37m
Length of Day
9h 39m
Waxing Crescent, 9% of the Moon is Illuminated
Dec 15
Waxing Crescent
Dec 19
First Quarter
Dec 28
Full
Jan 4
Last Quarter
Jan 11
New

Hourly Weather History & Observations

Time (MST) Temp. Windchill Dew Point Humidity Pressure Visibility Wind Dir Wind Speed Gust Speed Precip Events Conditions
12:53 AM 34.0 °F - 26.1 °F 73% 29.97 in 10.0 mi Calm Calm - N/A   Overcast
1:53 AM 34.0 °F - 25.0 °F 70% 29.97 in 10.0 mi Calm Calm - N/A   Overcast
2:53 AM 33.1 °F 27.7 °F 28.0 °F 82% 29.98 in 10.0 mi ENE 5.8 mph - N/A   Overcast
3:33 AM 33.8 °F 29.6 °F 28.4 °F 81% 29.95 in 3.0 mi NE 4.6 mph - 0.00 in Snow Light Snow
3:42 AM 32.0 °F 27.5 °F 28.4 °F 87% 29.95 in 2.5 mi East 4.6 mph - 0.00 in Snow Light Snow
3:53 AM 30.9 °F 24.3 °F 28.9 °F 92% 29.99 in 1.8 mi East 6.9 mph - 0.01 in Snow Light Snow
4:29 AM 30.2 °F 23.4 °F 28.4 °F 93% 29.94 in 3.0 mi ESE 6.9 mph - 0.01 in Snow Light Snow
4:53 AM 30.0 °F 22.4 °F 28.9 °F 96% 29.98 in 2.5 mi ESE 8.1 mph - 0.01 in Snow Light Snow
5:08 AM 30.2 °F 21.9 °F 28.4 °F 93% 29.93 in 1.2 mi ESE 9.2 mph - 0.00 in Snow Light Snow
5:53 AM 30.0 °F 22.4 °F 28.9 °F 96% 29.96 in 1.5 mi ESE 8.1 mph - 0.03 in Snow Light Snow
6:27 AM 30.2 °F 21.9 °F 28.4 °F 93% 29.92 in 2.0 mi East 9.2 mph - 0.01 in Snow Light Snow
6:39 AM 30.2 °F 21.9 °F 28.4 °F 93% 29.93 in 1.8 mi ESE 9.2 mph - 0.02 in Snow Light Snow
6:53 AM 30.0 °F 22.4 °F 28.9 °F 96% 29.97 in 2.0 mi East 8.1 mph - 0.02 in Snow Light Snow
7:09 AM 30.2 °F 23.4 °F 28.4 °F 93% 29.92 in 3.0 mi East 6.9 mph - 0.00 in Snow Light Snow
7:40 AM 30.2 °F 22.6 °F 28.4 °F 93% 29.92 in 1.8 mi East 8.1 mph - 0.01 in Snow Light Snow
7:53 AM 30.0 °F 23.2 °F 28.9 °F 96% 29.97 in 1.8 mi East 6.9 mph - 0.01 in Snow Light Snow
8:00 AM 30.2 °F 23.4 °F 28.4 °F 93% 29.92 in 2.0 mi East 6.9 mph - 0.00 in Snow Light Snow
8:23 AM 30.2 °F 22.6 °F 28.4 °F 93% 29.93 in 1.5 mi East 8.1 mph - 0.00 in Snow Light Snow
8:40 AM 30.2 °F 22.6 °F 28.4 °F 93% 29.92 in 3.0 mi East 8.1 mph - 0.00 in Snow Light Snow
8:53 AM 30.9 °F 23.5 °F 30.0 °F 96% 29.97 in 4.0 mi East 8.1 mph - 0.01 in Snow Light Snow
8:57 AM 30.2 °F 22.6 °F 30.2 °F 100% 29.93 in 2.5 mi ESE 8.1 mph - 0.00 in Snow Light Snow
9:06 AM 30.2 °F 23.4 °F 28.4 °F 93% 29.92 in 3.0 mi East 6.9 mph - 0.00 in Snow Light Snow
9:19 AM 30.2 °F 25.4 °F 30.2 °F 100% 29.93 in 6.0 mi East 4.6 mph - 0.00 in   Overcast
9:38 AM 32.0 °F 24.8 °F 30.2 °F 93% 29.92 in 9.0 mi East 8.1 mph - 0.00 in   Overcast
9:50 AM 32.0 °F 25.6 °F 30.2 °F 93% 29.92 in 10.0 mi East 6.9 mph - 0.00 in   Overcast
9:53 AM 32.0 °F 26.4 °F 30.0 °F 92% 29.97 in 10.0 mi East 5.8 mph - 0.00 in   Overcast
10:53 AM 35.1 °F 30.1 °F 32.0 °F 89% 29.94 in 10.0 mi East 5.8 mph - N/A   Overcast
11:53 AM 37.9 °F - 30.9 °F 76% 29.90 in 10.0 mi Calm Calm - N/A   Overcast
12:53 PM 37.9 °F 35.5 °F 30.0 °F 73% 29.88 in 10.0 mi West 3.5 mph - N/A   Overcast
1:44 PM 37.4 °F - 30.2 °F 75% 29.85 in 10.0 mi Calm Calm - 0.00 in   Overcast
1:53 PM 39.0 °F 34.8 °F 32.0 °F 76% 29.86 in 10.0 mi North 5.8 mph - 0.00 in Rain Light Rain
2:01 PM 39.2 °F 34.2 °F 33.8 °F 81% 29.84 in 10.0 mi North 6.9 mph - 0.00 in Rain Light Rain
2:38 PM 35.6 °F 29.2 °F 32.0 °F 87% 29.83 in 2.5 mi NNE 8.1 mph - 0.00 in Snow Light Snow
2:53 PM 35.1 °F 29.3 °F 33.1 °F 92% 29.86 in 5.0 mi NNE 6.9 mph - 0.01 in Snow Light Snow
3:30 PM 33.8 °F 27.0 °F 33.8 °F 100% 29.82 in 2.0 mi NE 8.1 mph - 0.00 in Snow Light Snow
3:53 PM 34.0 °F 28.8 °F 33.1 °F 96% 29.86 in 9.0 mi NNE 5.8 mph - 0.01 in Snow Light Snow
4:18 PM 33.8 °F 28.6 °F 33.8 °F 100% 29.81 in 10.0 mi NE 5.8 mph - 0.00 in Rain Light Rain
4:27 PM 33.8 °F 27.0 °F 32.0 °F 93% 29.81 in 10.0 mi ENE 8.1 mph - 0.00 in   Overcast
4:53 PM 33.1 °F 26.9 °F 32.0 °F 96% 29.84 in 2.0 mi ENE 6.9 mph - 0.00 in Snow Light Snow
5:01 PM 33.8 °F 25.8 °F 30.2 °F 87% 29.79 in 1.2 mi ENE 10.4 mph - 0.01 in Snow Light Snow
5:19 PM 33.8 °F 28.6 °F 32.0 °F 93% 29.79 in 2.5 mi ENE 5.8 mph - 0.02 in Snow Light Snow
5:28 PM 33.8 °F 27.7 °F 32.0 °F 93% 29.79 in 3.0 mi NE 6.9 mph - 0.02 in Snow Light Snow
5:31 PM 33.8 °F 28.6 °F 32.0 °F 93% 29.79 in 2.5 mi NE 5.8 mph - 0.02 in Snow Light Snow
5:39 PM 32.0 °F 24.8 °F 32.0 °F 100% 29.79 in 1.5 mi NNW 8.1 mph - 0.03 in Snow Light Snow
5:49 PM 32.0 °F 25.6 °F 32.0 °F 100% 29.79 in 1.2 mi NNW 6.9 mph - 0.04 in Snow Light Snow
5:53 PM 32.0 °F 25.6 °F 32.0 °F 100% 29.84 in 1.0 mi North 6.9 mph - 0.05 in Snow Light Snow
6:08 PM 32.0 °F 24.8 °F 32.0 °F 100% 29.79 in 0.8 mi North 8.1 mph - 0.04 in Snow Light Snow
6:22 PM 32.0 °F 24.8 °F 32.0 °F 100% 29.79 in 0.5 mi NNW 8.1 mph - 0.09 in Fog , Snow Snow
6:30 PM 32.0 °F 24.8 °F 32.0 °F 100% 29.79 in 0.5 mi NNW 8.1 mph - 0.13 in Fog , Snow Snow
6:49 PM 32.0 °F 22.5 °F 32.0 °F 100% 29.81 in 1.0 mi WNW 12.7 mph - 0.16 in Snow Light Snow
6:50 PM 32.0 °F 22.5 °F 32.0 °F 100% 29.86 in 1.0 mi WNW 12.7 mph - 0.16 in Snow Light Snow
7:17 PM 32.0 °F 25.6 °F 30.2 °F 93% 29.80 in 1.5 mi WNW 6.9 mph - 0.03 in Snow Light Snow
7:26 PM 32.0 °F 24.2 °F 30.2 °F 93% 29.81 in 3.0 mi West 9.2 mph - 0.03 in Snow Light Snow
7:45 PM 30.2 °F 23.4 °F 30.2 °F 100% 29.80 in 10.0 mi West 6.9 mph - 0.03 in   Overcast
7:53 PM 30.9 °F 21.7 °F 30.9 °F 100% 29.86 in 10.0 mi West 11.5 mph - 0.03 in   Overcast
7:58 PM 30.2 °F 21.3 °F 30.2 °F 100% 29.81 in 1.8 mi West 10.4 mph - 0.00 in Snow Light Snow
8:07 PM 30.2 °F 20.8 °F 30.2 °F 100% 29.81 in 3.0 mi West 11.5 mph - 0.00 in Snow Light Snow
8:13 PM 30.2 °F 21.9 °F 30.2 °F 100% 29.81 in 9.0 mi West 9.2 mph - 0.00 in   Scattered Clouds
8:53 PM 28.9 °F 20.4 °F 28.0 °F 96% 29.88 in 10.0 mi WSW 9.2 mph - 0.00 in   Mostly Cloudy
9:53 PM 30.0 °F 20.0 °F 28.0 °F 92% 29.90 in 10.0 mi West 12.7 mph - N/A   Overcast
10:18 PM 28.4 °F 17.0 °F 26.6 °F 93% 29.86 in 2.5 mi West 15.0 mph - 0.00 in Snow Light Snow
10:22 PM 28.4 °F 18.0 °F 28.4 °F 100% 29.86 in 0.8 mi West 12.7 mph - 0.00 in Snow Light Snow
10:25 PM 28.4 °F 18.0 °F 28.4 °F 100% 29.86 in 0.5 mi WSW 12.7 mph - 0.01 in Fog , Snow Snow
10:32 PM 28.4 °F 18.5 °F 28.4 °F 100% 29.86 in 1.0 mi West 11.5 mph - 0.02 in Snow Light Snow
10:37 PM 28.4 °F 19.1 °F 28.4 °F 100% 29.86 in 2.0 mi West 10.4 mph - N/A Snow Light Snow
10:53 PM 28.0 °F 19.3 °F 28.0 °F 100% 29.92 in 2.5 mi WSW 9.2 mph - 0.02 in Snow Light Snow
10:55 PM 28.4 °F 19.1 °F 28.4 °F 100% 29.87 in 3.0 mi WSW 10.4 mph - 0.00 in Snow Light Snow
11:02 PM 28.4 °F 19.7 °F 28.4 °F 100% 29.88 in 7.0 mi WSW 9.2 mph - 0.00 in Snow Light Snow
11:39 PM 28.4 °F 21.2 °F 28.4 °F 100% 29.89 in 10.0 mi SW 6.9 mph - 0.00 in   Overcast
11:53 PM 28.0 °F 21.7 °F 27.0 °F 96% 29.93 in 10.0 mi West 5.8 mph - 0.00 in   Overcast